Powrót do katalogu

STARLINK-37494

AktywnyŁącznośćSSO
NORAD 68905·PAYLOAD·🇺🇸 United States

Wystrzelony Apr 30, 2026 z Vandenberg Space Force Base

Loading…

Następne Przeloty (najbliższe 24 godziny)

TLE

ŚwieżeSource: CelesTrak SupGP

Epoka: Sep 15, 2026, 02:54 UTC

1 68905C 26097L   26258.12131944 -.00045824  00000+0 -14221-2 0  2584
2 68905  97.2855  92.3310 0001730  91.6116  29.5861 15.33471656    12

Śledź STARLINK-37494 w czasie rzeczywistym z AllMySat

Download on the App Store